Starlink 30959

operational
NORAD ID: 58442 Int'l Des: 2023-183 Owner: SPXS Country: US Constellation: starlink
LEOCIRCULAR

Über Starlink 30959

Beschreibung wird geladen...

Live-Position

3D-Globus wird geladen...

Nächste Überflüge

Höhenverlauf

Altitude vs Time

uPlot chart will show altitude changes over time

Zweizeiliger Elementsatz

1 58442U 23183F 25351.69995012 -.00000198 00000-0 42963-6 0 9996
2 58442 43.0041 128.5957 0002115 280.7665 79.2939 15.02538788114380
Epoch: 17. Dez. 2025 • Age: 16 hours

Aktueller Status

Höhe 570.8 km
Geschwindigkeit 7.58 km/s
Subsatellitenpunkt -42.75°S, 168.19°W
Startdatum 28. Nov. 2023
Alter 2 years
Typ internet

Technische Details

Klassifizierung Payload
Masse 730.00 kg
Trockenmasse 700.00 kg
Gesamtmasse 730.00 kg
Länge 0.30 m
Durchmesser 4.10 m
Spannweite 29.00 m
Form Box + pan
Hersteller SPXS
Bus-Typ Starlink V2M
Phasenstatus In Orbit
Besitzer/Staat SPXS/US

Große Konstellationen

Loading constellations...